Simultaneous Nadir Overpasses (SNOs) Predictions

Prediction of SNOs between AQUA and NPP Satellite Orbit:

Table of predicted SNOs for the next 14.0 days since TLE Epoch: 6/17/2012
Index Date (AQUA) Time (AQUA) Lat,Lon (AQUA) SZA (AQUA ) Date (NPP) Time (NPP) Lat,Lon (NPP) SZA (NPP ) Distance(km) Time Diff (sec)
1 06/19/2012 14:54:36 -76.36, 16.42 106.05 06/19/2012 14:53:31 -76.35, 16.39 105.99 0.90 65
2 06/19/2012 15:43:45 77.15,-173.15 72.99 06/19/2012 15:43:57 77.14,-173.23 73.00 2.26 12
3 06/22/2012 07:10:55 -76.67, 133.37 106.40 06/22/2012 07:10:16 -76.67, 133.34 106.37 0.69 39
4 06/22/2012 08:00:05 77.40, -56.26 72.70 06/22/2012 08:00:43 77.40, -56.33 72.69 1.75 38
5 06/24/2012 23:27:09 -77.15,-109.01 106.91 06/24/2012 23:26:56 -77.16,-108.91 106.92 2.66 13
6 06/25/2012 00:16:21 77.77, 61.16 72.31 06/25/2012 00:17:25 77.78, 61.24 72.25 2.00 64
7 06/27/2012 14:54:21 76.45,-163.24 74.07 06/27/2012 14:53:18 76.45,-163.23 74.12 0.22 63
8 06/27/2012 15:43:34 -77.13, 6.83 106.77 06/27/2012 15:43:49 -77.12, 6.72 106.75 2.92 15
9 06/30/2012 07:10:42 76.60, -46.83 74.06 06/30/2012 07:10:07 76.60, -46.91 74.10 2.28 35




NCC Satellite Simultaneous Nadir Overpasses (SNOs) Prediction Service
